Погода в Столбище

Россия / Республика Татарстан     55°38′33″N   49°13′02″E
темп.,
°C
ветер,
м/с
пор.,
м/с
влажн.,
%
обл.,
%
осадки,
мм/ч
давл.,
гПа
погр.,
м
17 октября, вс
вс1700:00+7ююз5125568 0.0 1017402
03:00+7ююз6135896 0.0 1017410
06:00+6ююз5136296 0.0 1016402
09:00+9юз6125517 0.0 1016739
12:00+11зюз5955100 0.0 10151464
15:00+11юз6851100 0.0 10141307
18:00+8ююз3864100 0.0 1014145
21:00+7ююз377098 0.0 1014161
18 октября, пн
пн1800:00+6юз3677100 0.0 1013135
03:00+5юз368688 0.0 101396
06:00+4юз3487100 0.0 101269
09:00+7юз3671100 0.0 1012306
12:00+10юз465965 0.0 1011945
15:00+10юз4657100 0.0 10091319
18:00+8ююз3765100 0.0 1009260
21:00+8юз4865100 0.0 1008438
19 октября, вт
вт1900:00+6зюз41072100 0.0 1008331
03:00+5з4781100 0.0 1009326
06:00+3сз3588100 0.0 1010162
09:00+5сз2370100 0.0 1010438
12:00+6з3360100 0.0 1010830
15:00+7зсз3357100 0.0 10101068
18:00+4ссз3567100 0.0 1011162
21:00+4ссз236696 0.0 1011159
20 октября, ср
ср2000:00+1сз22775 0.0 101238
03:000сз33845 0.0 101257
06:00−1сз359041 0.0 1013103
09:00+2сз467942 0.0 1013435
12:00+4ссз6763100 0.1 10141165
15:00+3ссз575799 0.1 10151301
18:00+2сз596493 0.0 1017440
21:00−1сз49735 0.0 1018303
21 октября, чт
чт2100:00−2сз36885 0.0 1019157
03:00−3зсз23885 0.0 101953
06:00−4з238947 0.0 101957
09:000юз457019 0.0 1019347
12:00+3юз695189 0.0 1017746
15:00+4ююз6124071 0.0 1015728
18:00+4ююз71549100 0.0 1012720
21:00+5ююз81558100 0.4 1009728